Location: Koslow
(50.3020°N, 18.5663°E)
Time: 00:44:17
(UTC+00:00)

STARLINK-1357 - Pass Details

Date: 17 June 2021
Orbit: 546 x 548 km, 53.1° (Epoch: 30 July)

Event Time Altitude Azimuth Distance (km) Brightness Sun altitude
Exits shadow 01:30:03 - 182° (S) 2,180 6.2 -7.9°
Reaches altitude 10° 01:31:24 10° 170° (S) 1,811 5.9 -7.8°
Maximum altitude 01:33:52 16° 133° (SE) 1,490 5.8 -7.6°
Drops below altitude 10° 01:36:21 10° 96° (E) 1,819 6.8 -7.3°
Sets 01:39:18 0° 74° (ENE) 2,718 8.2 -7.0°
